Accueil
METAR-TAF:

METAR-TAF

Aéroports :

Uherské Hradiště, République Tchèque

latitude: 49-01-46N, longitude: 017-26-23E, altitude: 177 m

Observation

Le bulletin a été fait il y a 1 heure et 11 minutes, à 10:00 UTC
Vent 5 kt de sud/sud-ouest, variant entre est/sud-est et ouest
Température 25°C
Humidité 47%
Pression 1016 hPa
Visibilité 10 km ou plus
Quelques nuages à une hauteur de 4700 ft

METAR: LKKU 171000Z 20005KT 110V260 9999 FEW047 25/13 Q1016

Heure: 13:11 (11:11 UTC)


TAF: absent

Observations et prévisions météorologiques de plus de 4000 aéroports (messages METAR et TAF).

Les stations disponibles sont représentées par des disques jaunes et rouges sur la carte.

Passer la souris dessus pour voir le nom de la station.

Cliquer dessus pour voir les observations et prévisions météorologiques.

Pour changer de carte: cliquez sur les boutons verts avec une croix noire pour zoomer, sur le bouton vert avec un tiret pour effectuer un zoom arrière, ou sur les flèches vertes pour les cartes adjacentes.


METAR-TAF: